Weather History for Vacaville, CA

Change the Weather History Date:

Saturday, February 8, 2014

  Actual Average Record
Temperature  
Mean Temperature 54 °F -  
Max Temperature 57 °F 59 °F 71 °F (1988)
Min Temperature 50 °F 39 °F 27 °F (2003)
Degree Days  
Heating Degree Days 12    
Growing Degree Days 4 (Base 50)    
Moisture  
Dew Point 53 °F    
Average Humidity 100    
Maximum Humidity 100    
Minimum Humidity 96    
Precipitation  
Precipitation 2.23 in - - ()
Sea Level Pressure  
Sea Level Pressure 30.11 in    
Wind  
Wind Speed 9 mph (SSE)    
Max Wind Speed 14 mph    
Max Gust Speed 23 mph    
Visibility 2 miles    
Events Rain    
Averages and records for this station are not official NWS values.
T = Trace of Precipitation, MM = Missing Value Source: NWS Daily Summary

Daily Weather History Graph

Daily Weather History Graph

Search for Another Location

Airport:

Trip Planner

Search our weather history database for the weather conditions in past years. The results will help you decide how hot, cold, wet, or windy it might be!

Date:

Astronomy

Feb. 08, 2014 Rise Set
Actual Time 7:06 AM PST 5:38 PM PST
Civil Twilight 6:38 AM PST 6:05 PM PST
Nautical Twilight 6:07 AM PST 6:37 PM PST
Astronomical Twilight 5:36 AM PST 7:08 PM PST
Moon 12:37 PM PST (2/8) 2:22 AM PST (2/8)
Length of Visible Light 11h 27m
Length of Day
10h 32m
Waxing Gibbous, 69% of the Moon is Illuminated
Feb 8
Waxing Gibbous
Feb 14
Full
Feb 22
Last Quarter
Mar 1
New
Mar 8
First Quarter

Hourly Weather History & Observations

Time (PST) Temp. Dew Point Humidity Pressure Visibility Wind Dir Wind Speed Gust Speed Precip Events Conditions
12:12 AM 50.0 °F 50.0 °F 100% 30.10 in 2.0 mi SE 10.4 mph - 0.02 in Rain Light Rain
12:28 AM 50.0 °F 50.0 °F 100% 30.11 in 1.8 mi SE 9.2 mph - 0.03 in Rain Light Rain
12:40 AM 50.0 °F 50.0 °F 100% 30.11 in 2.0 mi SE 9.2 mph - 0.04 in Rain Light Rain
12:53 AM 50.0 °F 50.0 °F 100% 30.11 in 1.8 mi SE 5.8 mph - 0.06 in Rain Light Rain
1:33 AM 50.0 °F 50.0 °F 100% 30.11 in 2.0 mi SE 10.4 mph - 0.03 in Rain Light Rain
1:49 AM 50.0 °F 50.0 °F 100% 30.10 in 1.5 mi SE 9.2 mph - 0.05 in Rain Light Rain
1:53 AM 50.0 °F 50.0 °F 100% 30.10 in 1.5 mi SE 9.2 mph - 0.05 in Rain Light Rain
2:48 AM 50.0 °F 50.0 °F 100% 30.10 in 2.0 mi SSE 9.2 mph - 0.06 in Rain Light Rain
2:53 AM 50.0 °F 50.0 °F 100% 30.10 in 2.0 mi SE 8.1 mph - 0.07 in Rain Light Rain
3:42 AM 50.0 °F 50.0 °F 100% 30.11 in 1.8 mi South 9.2 mph - 0.05 in Rain Light Rain
3:53 AM 50.0 °F 50.0 °F 100% 30.10 in 1.5 mi SSE 8.1 mph - 0.07 in Rain Rain
4:10 AM 50.0 °F 50.0 °F 100% 30.10 in 2.5 mi SSE 6.9 mph - 0.02 in Rain Light Rain
4:29 AM 50.0 °F 50.0 °F 100% 30.10 in 3.0 mi SSE 4.6 mph - 0.04 in Rain Light Rain
4:53 AM 50.0 °F 50.0 °F 100% 30.09 in 3.0 mi SSE 8.1 mph - 0.09 in Rain Light Rain
5:12 AM 50.0 °F 50.0 °F 100% 30.09 in 3.0 mi South 6.9 mph - 0.02 in Rain Light Rain
5:24 AM 50.0 °F 50.0 °F 100% 30.09 in 2.5 mi South 8.1 mph - 0.02 in Rain Light Rain
5:36 AM 50.0 °F 50.0 °F 100% 30.09 in 3.0 mi South 6.9 mph - 0.03 in Rain Light Rain
5:46 AM 50.0 °F 50.0 °F 100% 30.09 in 2.0 mi South 9.2 mph - 0.06 in Rain Rain
5:53 AM 50.0 °F 50.0 °F 100% 30.09 in 2.0 mi South 6.9 mph - 0.07 in Rain Rain
6:02 AM 50.0 °F 50.0 °F 100% 30.09 in 2.5 mi South 6.9 mph - 0.01 in Rain Light Rain
6:14 AM 50.0 °F 50.0 °F 100% 30.09 in 2.5 mi South 6.9 mph - 0.03 in Rain Light Rain
6:17 AM 50.0 °F 50.0 °F 100% 30.09 in 3.0 mi South 5.8 mph - 0.03 in Rain Light Rain
6:35 AM 50.0 °F 50.0 °F 100% 30.09 in 2.5 mi South 6.9 mph - 0.05 in Rain Light Rain
6:53 AM 50.0 °F 50.0 °F 100% 30.09 in 2.5 mi SSE 8.1 mph - 0.06 in Rain Light Rain
7:05 AM 50.0 °F 50.0 °F 100% 30.08 in 3.0 mi SSE 5.8 mph - 0.01 in Rain Light Rain
7:28 AM 50.0 °F 50.0 °F 100% 30.08 in 5.0 mi South 8.1 mph - 0.02 in Rain Light Rain
7:53 AM 50.0 °F 50.0 °F 100% 30.08 in 3.0 mi SSE 6.9 mph - 0.04 in Rain Light Rain
8:53 AM 51.1 °F 50.0 °F 96% 30.06 in 3.0 mi SSE 12.7 mph 23.0 mph 0.09 in Rain Rain
9:41 AM 51.1 °F 51.1 °F 100% 30.09 in 2.0 mi South 11.5 mph - 0.06 in Rain Rain
9:53 AM 51.1 °F 51.1 °F 100% 30.08 in 2.5 mi SSE 10.4 mph 18.4 mph 0.09 in Rain Rain
10:13 AM 52.0 °F 52.0 °F 100% 30.10 in 2.0 mi South 6.9 mph - 0.03 in Rain Rain
10:22 AM 52.0 °F 52.0 °F 100% 30.12 in 2.0 mi Variable 3.5 mph - 0.05 in Rain Rain
10:32 AM 52.0 °F 52.0 °F 100% 30.12 in 1.5 mi SSE 5.8 mph - 0.11 in Rain Heavy Rain
10:53 AM 52.0 °F 52.0 °F 100% 30.13 in 1.8 mi SSE 8.1 mph - 0.21 in Rain Rain
11:33 AM 52.0 °F 52.0 °F 100% 30.13 in 2.0 mi SSE 12.7 mph - 0.13 in Rain Rain
11:40 AM 52.0 °F 52.0 °F 100% 30.13 in 2.0 mi SSE 11.5 mph - 0.15 in Rain Rain
11:49 AM 51.8 °F 51.8 °F 100% 30.12 in 1.5 mi SE 11.5 mph 19.6 mph 0.18 in Rain Rain
11:53 AM 52.0 °F 52.0 °F 100% 30.12 in 1.5 mi SSE 10.4 mph 18.4 mph 0.18 in Rain Rain
12:09 PM 52.0 °F 52.0 °F 100% 30.12 in 1.0 mi SSE 10.4 mph - 0.05 in Rain Rain
12:53 PM 53.1 °F 53.1 °F 100% 30.09 in 1.8 mi South 9.2 mph 20.7 mph 0.13 in Rain Light Rain
1:02 PM 53.1 °F 53.1 °F 100% 30.09 in 2.0 mi South 11.5 mph - 0.01 in Rain Light Rain
1:22 PM 53.1 °F 53.1 °F 100% 30.09 in 1.8 mi South 11.5 mph - 0.06 in Rain Rain
1:53 PM 53.1 °F 53.1 °F 100% 30.09 in 1.5 mi SSE 13.8 mph - 0.16 in Rain Rain
2:29 PM 54.0 °F 54.0 °F 100% 30.10 in 2.0 mi SSE 8.1 mph - 0.10 in Rain Light Rain
2:41 PM 53.1 °F 53.1 °F 100% 30.10 in 1.8 mi SSE 12.7 mph - 0.12 in Rain Light Rain
2:53 PM 53.1 °F 53.1 °F 100% 30.10 in 2.5 mi SSE 12.7 mph - 0.13 in Rain Light Rain
3:02 PM 53.1 °F 53.1 °F 100% 30.09 in 1.2 mi South 10.4 mph 20.7 mph 0.02 in Rain Rain
3:16 PM 53.1 °F 53.1 °F 100% 30.09 in 2.5 mi SSE 13.8 mph 20.7 mph 0.03 in Rain Light Rain
3:24 PM 54.0 °F 54.0 °F 100% 30.09 in 4.0 mi South 9.2 mph 20.7 mph 0.04 in Rain Light Rain
3:33 PM 54.0 °F 54.0 °F 100% 30.09 in 3.0 mi South 11.5 mph - 0.04 in Rain Light Rain
3:41 PM 54.0 °F 54.0 °F 100% 30.09 in 2.5 mi South 11.5 mph - 0.04 in Rain Light Rain
3:53 PM 54.0 °F 54.0 °F 100% 30.09 in 1.8 mi South 10.4 mph - 0.05 in Rain Light Rain
4:48 PM 55.4 °F 55.4 °F 100% 30.10 in 1.2 mi South 9.2 mph - 0.10 in Rain Light Rain
4:53 PM 55.9 °F 55.9 °F 100% 30.09 in 1.8 mi South 8.1 mph - 0.10 in Rain Light Rain
5:04 PM 55.9 °F 55.9 °F 100% 30.09 in 2.0 mi South 9.2 mph - 0.02 in Rain Light Rain
5:14 PM 57.0 °F 57.0 °F 100% 30.10 in 3.0 mi South 5.8 mph - 0.03 in Rain Light Rain
5:30 PM 55.9 °F 55.9 °F 100% 30.10 in 3.0 mi SE 3.5 mph - 0.06 in Rain Light Rain
5:36 PM 55.9 °F 55.9 °F 100% 30.10 in 2.5 mi SE 4.6 mph - 0.07 in Rain Light Rain
5:44 PM 55.0 °F 55.0 °F 100% 30.10 in 2.0 mi SE 4.6 mph - 0.08 in Rain Light Rain
5:53 PM 55.0 °F 55.0 °F 100% 30.09 in 2.5 mi SE 6.9 mph - 0.08 in Rain Light Rain
6:26 PM 55.0 °F 55.0 °F 100% 30.10 in 3.0 mi SE 8.1 mph - 0.04 in Rain Light Rain
6:33 PM 55.0 °F 55.0 °F 100% 30.10 in 2.0 mi SE 9.2 mph - 0.05 in Rain Light Rain
6:53 PM 55.0 °F 55.0 °F 100% 30.10 in 1.8 mi SE 8.1 mph - 0.08 in Rain Light Rain
7:08 PM 55.0 °F 55.0 °F 100% 30.11 in 2.0 mi SSE 6.9 mph - 0.02 in Rain Light Rain
7:16 PM 55.0 °F 55.0 °F 100% 30.12 in 1.8 mi SSE 6.9 mph - 0.04 in Rain Rain
7:26 PM 55.0 °F 55.0 °F 100% 30.12 in 1.5 mi SSE 8.1 mph - 0.06 in Rain Rain
7:53 PM 54.0 °F 54.0 °F 100% 30.12 in 1.8 mi SSE 6.9 mph - 0.12 in Rain Light Rain
8:07 PM 55.0 °F 55.0 °F 100% 30.12 in 2.0 mi SSE 8.1 mph - 0.02 in Rain Light Rain
8:51 PM 55.4 °F 55.4 °F 100% 30.13 in 3.0 mi SSE 9.2 mph - 0.06 in Rain Light Rain
8:53 PM 55.0 °F 55.0 °F 100% 30.13 in 3.0 mi South 8.1 mph - 0.06 in Rain Light Rain
9:01 PM 55.0 °F 55.0 °F 100% 30.13 in 2.0 mi SSE 8.1 mph - 0.02 in Rain Rain
9:13 PM 55.0 °F 55.0 °F 100% 30.14 in 3.0 mi South 5.8 mph - 0.04 in Rain Rain
9:22 PM 55.0 °F 55.0 °F 100% 30.14 in 2.5 mi South 8.1 mph - 0.06 in Rain Light Rain
9:36 PM 55.0 °F 55.0 °F 100% 30.14 in 2.5 mi South 9.2 mph - 0.07 in Rain Light Rain
9:53 PM 55.0 °F 55.0 °F 100% 30.14 in 3.0 mi South 9.2 mph - 0.10 in Rain Light Rain
10:01 PM 55.0 °F 55.0 °F 100% 30.14 in 2.5 mi South 9.2 mph - 0.03 in Rain Rain
10:15 PM 55.0 °F 55.0 °F 100% 30.14 in 4.0 mi South 9.2 mph - 0.06 in Rain Light Rain
10:37 PM 55.0 °F 55.0 °F 100% 30.15 in 3.0 mi South 9.2 mph - 0.08 in Rain Light Rain
10:50 PM 55.4 °F 55.4 °F 100% 30.15 in 3.0 mi South 8.1 mph - 0.09 in Rain Light Rain
10:53 PM 55.0 °F 55.0 °F 100% 30.15 in 3.0 mi South 9.2 mph - 0.09 in Rain Light Rain
11:53 PM 55.0 °F 55.0 °F 100% 30.14 in 6.0 mi South 5.8 mph - 0.05 in   Overcast
11:58 PM 55.0 °F 55.0 °F 100% 30.13 in 3.0 mi South 6.9 mph - N/A   Overcast